DIWATA 2B

Satellite information

Favourite Embed

Satellite Type and Status

PAYLOADIN ORBIT

Key statistics

Satellite DIWATA 2B at a glance.

Uptime

2603

Days in orbit

Revolutions

≈ 15.0

Per day

Orbit

SSO

Sun Synchronous Orbit

Inclination

98.1

Latest

Satellite identification and parameters

Extended collection of information and parameters for DIWATA 2B.

Object identification

Identified? True

Debris? False

Object name: DIWATA 2B

International designator: 2018-084H

Object number (NORAD): 43678

Object ID (CCSDS): 43678

Country: REPUBLIC OF PHILIPPINES (RP)

Current information (Y/N): Y

RCS size: MEDIUM

Orbital parameters

Period: 96.036 minutes

Inclination: 98.1028 deg

SMA: 6946.787 km

Apoapsis: 573.921 km

Periapsis: 563.382 km

RAAN: 169.7641 deg

Eccentricy: 0.00075854

Argument of periapsis: 47.2792 deg

Mean anomaly: 312.9067 deg

Mean motion: 14.99432157 rev/day

Mean motion (dot): 0.00004788 rev/day2

B* drag term: 0.00039569719 1/REarth

Two-line elements (TLE)

Creation date: Dec. 12, 2025, 10:14 a.m.

Reference frame: TEME

Reference center: EARTH

Epoch: Dec. 12, 2025, 7:38 a.m. UTC

TLE line 0: 0 DIWATA 2B

TLE line 1: 1 43678U 18084H 25346.31840819 .00004788 00000-0 39570-3 0 9997

TLE line 2: 2 43678 98.1028 169.7641 0007585 47.2792 312.9067 14.99432157388202

Live tracking on map

Real-time ground track for satellite DIWATA 2B.

In-orbit conjunctions

There are no conjunctions computed for DIWATA 2B, at the moment. Check back to stay up to date, as we update our databases every day.

Go to all conjunctions

Associated space launch

KhalifaSat is an Earth observation satellite for UAE. KhalifaSat will provide high-resolution imagery of Earth to be used for various purposes, including urban planning, change monitoring, area classification, monitoring environmental change and aiding relief efforts for natural disasters. GOSAT 2 (Greenhouse gases Observing SATellite 2) is a Japanese satellite dedicated to greenhouse gas measurement from space. It's a follow on to the GOSAT mission and includes such improvements as an ability to gather more precise data and monitor carbon monoxide concentrations.

DIWATA 2B was lifted into orbit during the mission ‘H-IIA 202 | KhalifaSat & GOSAT-2’, on board a H-IIA space rocket.

The launch took place on Oct. 29, 2018, 4:08 a.m. from Yoshinobu Launch Complex LP-1.

For more information about the launch, click the button.

Launch to space H-IIA 202 | KhalifaSat & GOSAT-2
H-IIA 202 | KhalifaSat & GOSAT-2

Agency: N/A

Status: Launch Successful

Launch date: Oct. 29, 2018, 4:08 a.m. UTC

Rocket: H-IIA

Launch pad: Yoshinobu Launch Complex LP-1

Location: Tanegashima Space Center, Japan

...

Latest news about this satellite

News about space launch
Japan Launches UAE's KhalifaSat and Climate-Monitoring Satellite Into Orbit


Newsletter sign-up

Weekly statistics, charts and insights to help you stay on top of the space industry.